map of PPT home
PPT - Airport
Location
City:  Papeete, Tahiti, Society Islands, French Polynesia
Name:Faa'a
ICAO:NTAA
IATA:PPT

Details
Type:Airport (Aerodrome, Airfield)
Latitude:1733'24"S (-17.556666)
Longitude:14936'41"W (-149.611388)
Elevation:7 ft (2 m)
Variation:12.88E (WMM2015 magnetic declination)
0.00 annual change
Runways:1
Longest:11220 × 148 ft (3420 × 45 m), paved

Time
Time Zone:UTC-10
Local Time:

Weather
METAR:NTAA 250700Z 11002KT 9999 FEW023 SCT053 24/19 Q1015 NOSIG
TAF:NTAA 250500Z 2506/2612 VRB03KT 9999 FEW020 BKN050 PROB40
TEMPO 2522/2606 05015KT 4000 RA SCT018 BKN040

Related Locations
Nearby:
Farthest:EDB: 12388 mi / 19937 km
El Debba (Al Dabbah), NO, SD

Find:

   beyond  
but within

Other Information
Maps:
NOTAMs:
Links:
Sources:

  
flag of French Polynesia
flag of Society Islands
  

Sectional Chart

Flight Planning
at skyvector.com

Satellite Image

Google Maps Satellite view

 

Copyright © 2004-2017 Karl L. Swartz. All rights reserved.
The Great Circle Mapper name and logo are trademarks of the Great Circle Mapper.
All other trademarks mentioned herein belong to their respective owners.
Please see credits for attibutions and further copyright information.

  Follow gcmap on Facebook Follow gcmap on Twitter Follow gcmap on Google+ GCmap on LinkedIn

hCard Microformat

Geo Microformat